This demonstration page uses our WeatherBlox Daily Observations layout. Learn more.

Hourly Observations for June 8, 2018

Temp ( °F °C ) Dew Point ( °F °C ) Humidity (%) Winds ( mph kmh ) Pressure ( in mb ) Visibility ( mi km ) Precip ( " mm )
12:15 am 00:15 Clear 69 20.8 64 17.8 83 83 SE 8 13 29.91 1013 10 16.09344 0 0
12:35 am 00:35 Clear 69 20.5 64 17.8 85 85 SSE 8 13 29.91 1013 10 16.09344 0 0
12:55 am 00:55 Clear 69 20.5 64 17.7 84 84 SSE 7 11 29.91 1013 10 16.09344 0 0
1:15 am 01:15 Clear 69 20.5 64 17.8 85 85 S 7 11 29.91 1013 10 16.09344 0 0
1:35 am 01:35 Clear 68 20.2 64 17.7 86 86 SSE 6 9 29.91 1013 10 16.09344 0 0
1:55 am 01:55 Clear 68 20 64 17.7 87 87 SSE 7 11 29.91 1013 10 16.09344 0 0
2:15 am 02:15 Clear 67 19.7 64 17.7 88 88 S 5 7 29.91 1013 10 16.09344 0 0
2:35 am 02:35 Clear 67 19.5 64 17.7 89 89 S 3 6 29.91 1013 10 16.09344 0 0
2:55 am 02:55 Clear 67 19.4 64 17.6 89 89 S 6 9 29.94 1014 10 16.09344 0 0
3:15 am 03:15 Clear 66 19 64 17.7 92 92 S 5 7 29.94 1014 10 16.09344 0 0
3:35 am 03:35 Clear 66 19.1 64 17.8 92 92 S 5 7 29.94 1014 10 16.09344 0 0
3:55 am 03:55 Clear 66 18.8 64 17.7 93 93 S 3 6 29.94 1014 10 16.09344 0 0
4:15 am 04:15 Clear 66 18.8 64 17.5 92 92 Calm 29.94 1014 10 16.09344 0 0
4:35 am 04:35 Clear 65 18.4 64 17.5 95 95 Calm 29.97 1015 10 16.09344 0 0
4:55 am 04:55 Clear 64 17.8 63 17 95 95 Calm 29.97 1015 10 16.09344 0 0
5:15 am 05:15 Clear 65 18.5 64 17.5 94 94 Calm 29.97 1015 10 16.09344 0 0
5:35 am 05:35 Clear 63 17.3 62 16.5 95 95 SE 3 6 29.97 1015 10 16.09344 0 0
5:55 am 05:55 Clear 63 17.2 63 17 99 99 Calm 29.97 1015 10 16.09344 0 0
6:15 am 06:15 Sunny 62 16.5 62 16.5 100 100 Calm 29.97 1015 7 11.265408 0 0
6:35 am 06:35 Sunny with Mist and Fog 62 16.6 62 16.6 100 100 Calm 29.97 1015 5 8.04672 0 0
6:55 am 06:55 Sunny 63 17 62 16.7 98 98 Calm 29.97 1015 7 11.265408 0 0
7:15 am 07:15 Sunny with Mist and Fog 62 16.8 62 16.8 100 100 Calm 29.97 1015 5 8.04672 0 0
7:55 am 07:55 Sunny 67 19.2 66 18.8 98 98 ESE 5 7 29.97 1015 7 11.265408 0 0
8:15 am 08:15 Sunny 69 20.3 66 19 92 92 SSE 6 9 29.94 1014 10 16.09344 0 0
8:35 am 08:35 Sunny 70 21 66 18.7 87 87 S 14 22 29.94 1014 10 16.09344 0 0
8:55 am 08:55 Sunny 72 22.1 67 19.3 84 84 S 15 24 29.94 1014 10 16.09344 0 0
9:15 am 09:15 Sunny 73 22.7 67 19.2 81 81 S 18 30 29.94 1014 10 16.09344 0 0
9:35 am 09:35 Sunny 73 23 67 19.3 80 80 S 15 24 29.94 1014 10 16.09344 0 0
9:55 am 09:55 Sunny 75 23.8 67 19.5 77 77 S 12 19 29.91 1013 10 16.09344 0 0
10:15 am 10:15 Sunny 76 24.3 67 19.4 74 74 S 10 17 29.91 1013 10 16.09344 0 0
10:35 am 10:35 Sunny 77 24.9 67 19.4 72 72 S 9 15 29.91 1013 10 16.09344 0 0
10:55 am 10:55 Sunny 78 25.4 66 19 68 68 S 12 19 29.91 1013 10 16.09344 0 0
11:15 am 11:15 Sunny 79 26.1 67 19.4 67 67 S 10 17 29.88 1012 10 16.09344 0 0
11:35 am 11:35 Sunny 80 26.6 66 19.1 64 64 SSE 12 19 29.88 1012 10 16.09344 0 0
11:55 am 11:55 Sunny 80 26.8 66 19 62 62 SSE 14 22 29.85 1011 10 16.09344 0 0
12:15 pm 12:15 Sunny 81 27.4 67 19.4 62 62 SSE 13 20 29.85 1011 10 16.09344 0 0
12:35 pm 12:35 Sunny 82 27.8 67 19.3 60 60 S 12 19 29.85 1011 10 16.09344 0 0
12:55 pm 12:55 Sunny 82 27.9 67 19.6 61 61 SSE 14 22 29.85 1011 10 16.09344 0 0
1:15 pm 13:15 Sunny 83 28.4 67 19.6 59 59 SE 14 22 29.85 1011 10 16.09344 0 0
1:35 pm 13:35 Sunny 83 28.2 67 19.5 59 59 SE 13 20 29.85 1011 10 16.09344 0 0
1:55 pm 13:55 Sunny 84 28.9 67 19.5 57 57 ESE 13 20 29.85 1011 10 16.09344 0 0
2:15 pm 14:15 Sunny 84 29 67 19.4 56 56 SE 9 15 29.83 1010 10 16.09344 0 0
2:35 pm 14:35 Sunny 86 30 68 20 55 55 SE 14 22 29.83 1010 10 16.09344 0 0
2:55 pm 14:55 Sunny 86 29.9 67 19.6 54 54 SSE 9 15 29.83 1010 10 16.09344 0 0
3:15 pm 15:15 Sunny 86 30 67 19.6 54 54 SSE 14 22 29.83 1010 10 16.09344 0 0
3:35 pm 15:35 Sunny 86 30 67 19.2 52 52 SSE 12 19 29.83 1010 10 16.09344 0 0
3:55 pm 15:55 Sunny 86 30.1 67 19.2 52 52 SE 14 22 29.83 1010 10 16.09344 0 0
4:15 pm 16:15 Sunny 86 30.2 66 18.9 51 51 SSE 14 22 29.83 1010 10 16.09344 0 0
4:35 pm 16:35 Sunny 86 30.2 66 18.7 50 50 SSE 16 26 29.83 1010 10 16.09344 0 0
4:55 pm 16:55 Sunny 87 30.4 66 19 51 51 SE 14 22 29.8 1009 10 16.09344 0 0
5:15 pm 17:15 Sunny 87 30.4 66 18.7 50 50 SSE 17 28 29.8 1009 10 16.09344 0 0
5:35 pm 17:35 Sunny 87 30.6 66 18.7 49 49 SSE 15 24 29.77 1008 10 16.09344 0 0
5:55 pm 17:55 Sunny 87 30.6 66 18.8 49 49 SSE 14 22 29.77 1008 10 16.09344 0 0
6:15 pm 18:15 Sunny 87 30.5 66 19.1 51 51 SSE 16 26 29.77 1008 10 16.09344 0 0
6:35 pm 18:35 Sunny 87 30.5 67 19.4 52 52 SSE 14 22 29.77 1008 10 16.09344 0 0
6:55 pm 18:55 Sunny 87 30.3 67 19.5 52 52 SSE 10 17 29.77 1008 10 16.09344 0 0
7:15 pm 19:15 Sunny 87 30.4 68 19.8 53 53 SSE 12 19 29.77 1008 10 16.09344 0 0
7:35 pm 19:35 Sunny 87 30.3 68 20 54 54 S 12 19 29.77 1008 10 16.09344 0 0
7:55 pm 19:55 Sunny 85 29.6 67 19.7 55 55 SSE 12 19 29.8 1009 10 16.09344 0 0
8:15 pm 20:15 Sunny 83 28.5 68 19.8 59 59 SSE 7 11 29.8 1009 10 16.09344 0 0
8:35 pm 20:35 Sunny 82 27.5 68 20 64 64 SE 7 11 29.8 1009 10 16.09344 0 0
8:55 pm 20:55 Sunny 80 26.6 68 19.9 67 67 SE 8 13 29.77 1008 10 16.09344 0 0
9:15 pm 21:15 Clear 79 25.9 67 19.4 67 67 SE 9 15 29.77 1008 10 16.09344 0 0
9:35 pm 21:35 Clear 79 26 66 19 65 65 SE 9 15 29.77 1008 10 16.09344 0 0
9:55 pm 21:55 Clear 79 26.1 66 18.9 65 65 SE 9 15 29.77 1008 10 16.09344 0 0
10:15 pm 22:15 Clear 77 25.1 66 19.1 69 69 ESE 10 17 29.83 1010 10 16.09344 0 0
10:35 pm 22:35 Clear 77 25.1 67 19.5 71 71 SE 8 13 29.83 1010 10 16.09344 0 0
10:55 pm 22:55 Clear 77 25 67 19.6 72 72 ESE 9 15 29.83 1010 10 16.09344 0 0
11:15 pm 23:15 Clear 76 24.6 67 19.6 74 74 SE 9 15 29.83 1010 10 16.09344 0 0
11:35 pm 23:35 Clear 76 24.6 67 19.5 73 73 SE 12 19 29.85 1011 10 16.09344 0 0
11:55 pm 23:55 Clear 75 24.1 67 19.6 76 76 SE 9 15 29.85 1011 10 16.09344 0 0

Powered by AerisWeather